SCP
0 0 0 0 0 -0 -0 -0 0 0 0 0 0 0 0 -0 -0 0 0 -0 0 0 0 -0 -0 -0 -0 -0 -0 -0 -0 -0 -0 -0 -0 -0 -0 -0 -0 -0 -0 0 -0 -0 -0 -0 -0 0 0
0 0 0 0 0 0 -0 -0 -0 0 0 -0 0 0 0 -0 -0 -0 0 -0 0 0 0 0 -0 -0 -0 -0 -0 -0 -0 0 -0 -0 -0 -0 -0 -0 -0 0 0 0 -0 -0 0 0 0 0 0
0 0 0 0 0 0 0 0 0 0 -0 0 0 0 -0 -0 -0 0 0 -0 0 0 0 0 -0 -0 -0 -0 -0 -0 -0 -0 -0 0 -0 0 0 -0 -0 0 -0 0 0 0 0 0 0 0 0
0 0 0 0 0 0 -0 -0 0 -0 -0 0 0 0 0 0 -0 -0 0 0 0 0 0 0 -0 -0 -0 -0 -0 -0 0 -0 -0 -0 -0 0 0 0 0 0 -0 -0 0 0 0 -0 -0 0 0
0 0 0 0 0 0 0 0 0 0 0 0 0 -0 -0 0 0 -0 0 0 0 0 0 0 0 0 0 0 -0 -0 -0 -0 -0 -0 -0 -0 -0 -0 -0 0 -0 0 0 0 -0 -0 -0 -0 -0
0 0 0 0 0 0 0 0 0 0 0 0 0 0 0 -0 -0 0 0 0 0 0 -0 -0 -0 0 0 -0 -0 -0 -0 -0 -0 -0 -0 -0 -0 -0 -0 -0 -0 -0 -0 -0 -0 -0 -0 -0 -0
0 0 0 0 0 0 0 0 0 0 0 0 0 0 0 0 0 0 0 0 0 0 0 -0 -0 0 -0 -0 -0 -0 -0 -0 -0 -0 -0 -0 -0 -0 -0 -0 -0 -0 -0 -0 -0 -0 -0 -0 0
0 0 0 0 0 0 0 0 0 0 0 0 0 0 0 -0 0 0 0 -0 -0 0 -0 0 -0 -0 -0 -0 -0 -0 -0 -0 -0 -0 -0 -0 -0 -0 -0 -0 -0 -0 -0 -0 -0 -0 -0 -0 0
0 0 0 0 0 0 0 0 0 0 0 0 0 0 0 -0 0 0 0 -0 -0 -0 -0 0 0 0 -0 -0 -0 -0 -0 -0 -0 -0 -0 -0 -0 -0 -0 -0 -0 -0 -0 -0 -0 -0 0 0 0
0 0 0 0 0 0 0 0 0 0 0 0 0 0 0 0 0 0 0 -0 -0 -0 -0 -0 -0 -0 -0 -0 -0 -0 -0 -0 -0 -0 -0 0 0 0 0 0 0 0 0 0 0 0 0 0 0
0 0 0 0 0 0 0 0 0 0 0 0 0 0 0 0 0 0 0 -0 -0 -0 -0 -0 -0 -0 -0 -0 -0 0 -0 0 0 0 0 0 0 0 0 0 0 0 0 0 0 0 0 0 0
0 0 0 0 0 0 0 0 0 0 0 0 0 0 0 0 0 0 0 0 0 -0 -0 -0 -0 -0 -0 -0 -0 -0 0 0 0 0 0 0 0 0 0 0 0 0 0 0 0 0 0 0 0
0 0 0 0 0 0 0 0 0 0 0 0 0 0 0 0 0 0 0 0 0 0 0 0 0 -0 -0 -0 0 0 0 0 0 0 0 0 0 0 0 0 0 0 0 0 0 0 0 0 0
0 0 0 0 0 0 0 0 0 0 0 0 0 0 0 0 0 0 0 0 0 0 0 0 0 0 0 0 0 0 0 0 0 0 0 0 0 0 0 0 0 0 0 0 0 0 0 0 0
0 0 0 0 0 0 0 0 0 0 0 0 0 0 0 0 0 0 0 0 0 0 0 0 0 0 0 0 0 0 0 0 0 0 0 0 0 0 0 0 0 0 0 0 0 0 0 0 0
0 0 0 0 0 0 0 0 0 0 0 0 0 0 0 0 0 0 0 0 0 0 0 0 0 0 0 0 0 0 0 0 0 0 0 0 0 0 0 0 0 0 0 0 0 0 0 0 0
0 0 0 0 0 0 0 0 0 0 0 0 0 0 0 0 0 0 0 0 0 0 0 0 0 0 0 0 0 0 0 0 0 0 0 0 0 0 0 0 0 0 0 0 0 0 0 0 0
0 0 0 0 0 0 0 0 0 0 0 0 0 0 0 0 0 0 0 0 0 0 0 0 0 0 0 0 0 0 0 0 0 0 0 0 0 0 0 0 0 0 0 0 0 0 0 0 0
0 0 0 0 0 0 0 0 0 0 0 0 0 0 0 0 0 0 0 0 0 0 0 0 0 0 0 0 0 0 0 0 0 0 0 0 0 0 0 0 0 0 0 0 0 0 0 0 0
0 0 0 0 0 0 0 0 0 0 0 0 0 0 0 0 0 0 0 0 0 0 0 0 0 0 0 0 0 0 0 0 0 0 0 0 0 0 0 0 0 0 0 0 0 0 0 0 0
0 0 0 0 0 0 0 -0 0 -0 0 0 0 0 0 0 0 0 0 0 0 0 0 0 0 0 0 0 0 0 0 0 0 0 0 0 0 0 0 0 0 0 0 0 0 0 0 0 0
0 0 0 0 0 0 0 -0 -0 0 0 0 0 0 0 0 0 0 0 0 0 0 0 0 0 0 0 0 0 0 0 0 0 0 0 0 0 0 0 0 0 0 0 0 0 0 0 0 0
0 0 0 0 0 0 0 0 -0 -0 0 0 0 0 0 0 0 0 0 0 0 0 0 0 0 0 0 0 0 0 0 0 0 0 0 0 0 0 0 0 0 0 0 0 0 0 0 0 0
0 0 0 0 0 0 0 0 -0 -0 0 0 0 0 0 0 0 0 0 0 0 0 0 0 0 0 0 0 0 0 0 0 0 0 0 0 0 0 0 0 0 0 0 0 0 0 0 0 0
0 0 0 0 0 0 0 0 0 0 0 0 0 0 0 0 0 0 0 0 0 0 0 0 0 0 0 0 0 0 0 0 0 0 0 0 0 0 0 0 0 0 0 0 0 0 0 0 0
0 0 0 0 0 0 0 0 0 -0 0 -0 0 0 0 0 0 0 0 0 0 0 0 0 0 0 0 0 0 0 0 0 0 0 0 0 0 0 0 0 0 0 0 0 0 0 0 0 0
0 0 0 0 0 0 0 0 0 -0 0 0 0 0 0 0 0 0 0 0 0 0 0 0 0 0 0 0 0 0 0 0 0 0 0 0 0 0 0 0 0 0 0 0 0 0 0 0 0
0 0 0 0 0 0 0 0 0 0 -0 0 0 0 0 0 0 0 0 0 0 0 0 0 0 0 0 0 0 0 0 0 0 0 0 0 0 0 0 0 0 0 0 0 0 0 0 0 0
0 0 0 0 0 0 0 0 0 -0 -0 -0 0 0 0 0 0 0 0 0 0 0 0 0 0 0 0 0 0 0 0 0 0 0 0 0 0 0 0 0 0 0 0 0 0 0 0 0 0
0 0 0 0 0 0 0 0 0 -0 0 0 0 0 0 0 0 0 0 0 0 0 0 0 0 0 0 0 0 0 0 0 0 0 0 0 0 0 0 0 0 0 0 0 0 0 0 0 0
Wind_Speed_500mb
24 25 25 9 8 10 1 3 2 4 5 4 9 8 13 10 2 5 33 21 18 21 21 24 23 24 24 23 21 20 17 18 16 13 15 17 19 20 22 25 27 29 28 28 31 29 31 33 34
25 26 13 5 9 6 7 4 8 1 19 34 22 16 10 4 5 18 39 26 19 20 23 25 26 29 26 23 21 17 17 20 14 11 12 17 20 22 25 29 27 27 26 29 26 28 30 29 31
21 24 11 8 6 5 7 5 9 14 26 2 11 14 6 6 9 40 26 28 21 24 25 28 28 31 29 24 20 18 19 16 12 10 14 15 21 23 24 25 25 25 26 27 24 26 26 28 30
15 8 8 7 3 5 8 12 16 19 10 5 26 15 8 2 36 22 32 26 25 27 28 27 28 32 31 28 23 24 20 16 13 10 10 13 20 22 23 24 24 24 26 25 22 21 22 25 26
12 6 7 4 7 6 3 18 26 10 11 16 11 9 7 29 13 22 28 27 27 29 30 27 28 32 34 33 27 27 22 19 14 10 11 15 18 20 20 21 22 22 23 22 19 16 17 22 23
6 6 7 1 7 11 3 20 12 11 16 20 14 17 15 25 16 29 26 28 27 29 30 29 29 30 33 34 32 30 26 20 13 9 9 14 18 19 17 18 19 20 21 20 18 15 12 16 20
5 6 7 4 6 6 5 18 11 18 17 12 29 9 11 33 26 30 27 28 28 31 31 29 30 29 31 33 33 32 29 21 14 11 8 10 16 17 15 15 15 17 18 18 17 15 10 10 15
6 6 6 8 6 6 4 20 13 24 14 19 24 14 13 44 38 35 31 30 31 32 30 29 28 29 31 32 32 30 25 20 16 13 11 13 14 16 15 13 13 14 15 16 15 14 10 5 8
7 5 4 7 10 6 8 7 8 11 27 24 24 12 9 49 47 45 42 38 38 38 35 32 30 29 30 31 30 28 25 21 18 16 13 11 12 14 15 13 12 12 12 13 13 11 9 5 2
10 5 12 10 5 2 10 8 9 9 22 13 25 24 22 52 57 58 58 53 49 48 43 38 35 32 32 31 31 29 25 22 19 17 16 15 14 14 14 13 12 11 10 10 10 8 7 5 1
15 12 3 8 3 11 11 6 9 8 6 29 48 40 44 58 61 63 62 56 53 50 47 44 40 36 34 33 30 28 25 22 20 18 16 17 16 15 14 14 12 10 9 8 6 5 4 4 2
12 22 13 6 4 11 13 21 12 21 19 26 36 43 53 66 65 67 69 63 58 55 50 48 46 43 39 36 33 29 27 24 21 18 17 16 16 14 15 14 13 11 10 8 7 6 6 5 5
6 14 23 17 7 15 24 35 21 28 33 16 30 47 55 60 63 64 64 63 60 60 55 53 51 48 44 43 38 36 31 28 24 23 21 20 17 15 14 14 13 12 10 9 9 9 9 8 8
7 13 13 14 10 11 8 23 12 24 31 31 31 50 61 63 66 67 69 70 67 62 60 56 55 52 49 47 44 40 36 32 31 28 25 22 20 19 17 16 14 13 12 13 12 12 12 12 11
4 8 11 21 18 7 11 10 12 52 36 31 40 49 62 65 69 70 60 69 69 67 61 62 60 57 55 51 48 45 40 38 37 33 30 27 25 22 21 20 19 17 17 16 15 15 15 14 13
4 2 7 8 26 16 13 19 19 33 41 45 45 56 64 70 73 69 69 69 71 71 70 64 64 63 60 57 53 49 46 44 42 38 36 33 31 28 27 27 24 23 22 20 19 19 18 15 15
3 8 11 15 18 9 18 11 44 59 46 50 48 57 66 72 75 75 77 75 73 74 74 72 70 68 64 61 59 54 51 51 47 44 42 39 37 35 34 31 28 29 28 25 23 21 18 16 19
11 7 8 10 8 15 14 21 23 43 29 66 69 62 63 74 80 77 77 75 77 76 77 77 75 71 69 66 64 61 59 59 56 52 47 44 44 42 39 38 35 35 34 31 27 24 19 18 20
4 9 12 7 14 8 17 21 36 46 43 53 64 56 69 79 80 83 83 80 84 83 84 83 82 79 77 76 78 74 74 67 64 59 54 51 49 47 46 43 41 41 41 35 30 27 26 23 22
9 6 9 11 16 6 15 28 25 34 36 51 64 70 76 71 87 88 88 90 90 88 87 89 86 85 83 80 81 81 77 73 67 63 61 56 55 52 51 49 46 45 44 41 38 34 33 30 26
12 25 18 10 9 4 11 35 24 33 51 62 71 76 77 85 89 84 95 95 97 96 94 94 90 90 87 84 81 84 83 81 79 76 71 66 60 56 55 53 50 48 47 45 40 37 39 39 30
24 12 7 5 3 10 8 27 21 18 38 44 68 77 85 97 104 105 97 96 104 103 96 92 95 92 90 86 90 86 88 90 85 79 72 67 62 58 56 54 52 50 48 47 43 39 39 37 34
12 10 17 16 18 2 13 12 11 30 46 40 50 80 92 116 115 103 103 99 99 104 100 97 95 94 92 92 90 87 88 85 77 77 75 68 62 60 57 54 52 51 49 45 44 43 44 41 41
13 7 8 5 7 13 28 20 44 29 42 18 38 74 85 95 97 105 96 98 98 100 101 99 100 96 93 92 89 89 87 83 82 81 78 73 66 61 62 55 53 47 45 47 48 46 48 48 47
14 11 10 9 12 21 7 24 56 19 18 16 26 59 76 86 87 95 100 101 102 103 102 103 102 97 96 96 92 90 85 80 81 79 78 72 65 62 60 54 53 52 49 52 50 50 50 52 50
31 33 7 12 11 11 3 20 26 20 41 56 62 62 58 66 73 87 92 102 111 101 101 100 104 102 99 97 95 88 84 82 79 79 76 70 63 59 50 49 50 48 42 50 51 51 48 46 56
12 20 35 17 1 2 9 18 23 19 22 27 53 70 83 83 78 74 85 92 107 110 101 98 105 103 102 97 93 89 87 85 83 82 75 67 59 54 50 47 44 47 47 52 54 54 54 55 57
27 2 9 16 23 27 16 15 24 7 13 22 31 57 74 75 75 74 82 83 92 106 106 98 101 104 100 96 95 92 89 85 83 82 74 65 57 51 48 51 54 55 54 53 57 60 61 60 61
12 12 16 5 9 14 18 22 16 29 34 36 21 56 57 50 63 73 74 79 80 89 102 98 100 103 106 99 94 93 90 87 84 80 71 64 55 53 58 57 59 60 60 57 63 64 62 60 61
24 43 23 9 17 9 5 40 13 15 18 22 44 55 67 68 62 54 73 76 80 81 96 99 101 104 101 94 93 90 90 88 83 76 72 65 61 63 64 62 61 61 63 60 60 59 58 58 53
Wind_Direction_500mb
326 335 341 337 49 63 20 224 310 107 98 100 144 156 148 89 155 204 146 144 158 181 176 174 161 160 154 143 136 127 118 115 121 113 114 101 103 97 94 90 91 93 95 96 91 87 82 80 73
324 337 340 43 78 61 275 252 150 167 132 118 96 92 57 112 131 148 151 150 159 178 176 177 173 165 157 148 142 134 125 131 140 125 113 104 102 99 92 90 92 95 98 99 99 94 89 84 81
329 337 332 85 108 157 199 215 164 122 154 137 105 76 89 147 169 156 159 154 166 175 179 174 176 168 164 155 152 139 129 136 156 130 115 109 101 95 93 94 93 95 99 102 103 102 93 83 79
345 359 29 73 167 232 198 185 173 140 124 128 124 73 78 285 148 157 157 161 168 173 174 172 173 170 162 161 156 150 148 150 157 144 118 107 102 100 100 99 96 98 105 111 108 99 91 86 79
346 34 44 22 297 276 235 181 170 141 135 147 141 152 92 152 154 164 164 164 171 170 168 167 167 171 168 167 164 161 163 159 153 137 109 107 105 106 106 102 99 103 108 111 110 102 93 89 82
335 75 47 249 295 309 83 168 167 152 154 150 114 118 149 182 189 168 167 167 173 173 166 163 162 170 173 175 174 172 177 179 167 147 115 99 110 114 114 111 109 110 112 115 118 115 100 86 81
91 81 185 217 278 323 199 191 188 175 161 187 149 109 170 189 190 182 173 175 177 179 174 168 166 169 174 180 182 184 189 194 188 170 143 119 127 126 123 117 112 114 118 122 125 126 122 99 86
126 90 157 204 233 245 278 182 230 179 186 164 170 166 179 187 183 184 181 183 185 186 185 179 176 177 180 182 185 189 195 203 195 182 166 139 142 140 139 129 124 123 126 128 130 134 130 92 70
140 82 224 225 169 238 340 197 211 189 150 167 194 214 224 181 181 185 186 190 192 191 190 186 183 180 179 181 184 185 183 182 183 182 175 166 164 163 154 145 141 139 140 138 135 134 135 135 39
137 148 224 211 194 233 337 202 202 181 169 203 194 195 187 182 186 192 194 195 195 195 191 192 190 188 185 185 185 183 185 185 188 188 183 178 175 170 169 165 163 159 157 156 152 154 149 151 197
164 194 173 244 189 342 332 305 213 210 218 206 201 190 186 187 194 200 203 204 201 198 196 196 195 196 195 193 193 193 191 195 196 194 186 183 182 183 183 183 186 183 181 175 180 177 176 181 205
147 232 232 231 195 313 301 322 308 226 236 238 223 208 192 191 200 205 207 205 204 203 203 201 200 201 201 201 202 202 202 204 204 201 196 198 195 194 195 196 198 203 208 208 213 217 223 231 242
288 195 196 219 277 279 289 277 254 270 262 269 217 200 203 204 208 211 214 212 208 208 207 207 206 205 207 207 207 209 209 211 211 211 208 205 207 206 207 211 210 213 222 229 233 241 248 255 266
309 287 257 226 231 281 270 271 242 269 269 247 221 213 207 210 213 211 214 215 213 214 212 211 212 211 211 213 213 214 215 214 217 218 219 215 212 213 216 221 226 229 230 235 236 241 250 260 269
33 317 294 237 213 229 349 275 223 255 258 239 222 219 212 214 215 219 223 217 217 217 215 216 216 216 216 216 217 217 218 219 223 222 225 227 224 223 226 229 233 236 240 245 247 253 258 264 268
140 244 274 231 182 222 148 253 265 253 241 237 229 221 219 218 222 227 227 226 222 221 220 218 220 220 219 220 219 220 220 222 226 224 228 230 232 230 232 236 238 242 247 250 253 258 263 265 278
213 232 249 308 214 153 174 217 247 250 243 250 236 228 226 227 226 228 229 231 228 226 224 222 222 224 224 224 223 223 224 226 227 226 228 231 236 236 239 244 244 247 251 254 255 258 257 275 293
194 223 212 233 272 226 210 232 247 242 235 243 249 240 233 234 234 234 232 233 233 231 230 228 227 227 229 229 228 227 227 229 229 230 231 233 236 241 243 247 246 248 252 254 255 256 260 267 273
98 211 232 221 239 258 250 247 250 250 252 252 256 250 246 239 249 240 237 235 235 233 231 229 229 230 230 231 228 228 229 228 230 231 235 235 237 242 246 248 249 250 253 258 257 257 252 266 272
252 233 253 305 280 253 275 264 258 257 252 243 251 254 253 254 250 244 240 236 235 236 234 232 230 231 230 234 234 234 235 235 237 239 239 240 241 243 247 251 251 251 253 252 248 247 251 254 259
236 229 231 245 340 272 323 276 249 260 246 251 253 253 251 253 254 254 244 240 237 236 235 234 233 231 230 232 233 235 238 239 239 240 242 241 242 244 249 251 250 251 251 252 250 245 244 245 247
234 192 213 218 125 253 116 281 238 248 249 231 239 242 245 247 252 253 252 247 238 237 236 237 235 234 232 230 232 233 235 236 238 239 242 243 245 245 246 248 248 248 247 249 245 244 245 246 248
242 182 209 219 223 350 228 271 284 211 252 237 227 237 236 246 246 245 248 249 246 238 236 237 237 234 233 231 233 235 236 241 244 242 243 243 244 244 245 244 245 246 243 245 243 243 244 245 254
165 148 47 13 170 230 238 207 265 226 244 239 220 236 238 240 241 243 245 244 246 240 236 235 235 234 232 234 233 236 237 238 239 239 239 241 242 242 244 244 244 243 244 248 250 252 252 250 255
187 166 226 215 224 240 234 203 250 284 274 232 226 239 245 247 244 242 240 241 240 237 234 234 235 236 234 235 236 236 239 239 239 240 240 239 239 241 243 243 243 242 245 251 253 255 255 257 257
212 208 210 234 217 243 137 217 250 237 258 249 247 249 255 253 251 247 244 240 236 235 234 234 234 235 236 236 237 238 239 239 238 239 239 241 242 245 247 247 248 248 250 254 257 256 259 260 264
170 231 238 270 279 223 214 273 289 249 263 256 250 252 254 252 254 251 246 242 237 234 234 235 232 234 237 238 238 237 238 238 237 239 240 242 243 244 246 247 245 252 251 253 256 257 255 257 260
218 62 202 205 247 252 233 250 246 314 259 254 248 249 256 256 258 250 248 243 239 237 236 236 234 235 237 238 237 236 236 237 238 241 242 243 243 243 244 248 247 248 247 250 252 253 255 258 259
183 207 232 242 205 227 253 253 210 238 235 249 255 256 262 269 272 253 252 246 241 237 231 232 233 232 234 237 237 235 236 236 238 241 242 241 242 246 245 244 245 246 246 253 255 255 258 259 261
255 225 215 217 212 238 306 265 194 227 254 249 261 269 273 271 269 271 254 251 240 234 228 228 229 232 234 236 236 235 236 237 239 241 242 241 240 243 245 245 244 246 248 258 254 256 257 259 258
Wind_Speed_850mb
24 25 25 9 8 10 1 3 2 4 5 4 9 8 13 10 2 5 33 21 18 21 21 24 23 24 24 23 21 20 17 18 16 13 15 17 19 20 22 25 27 29 28 28 31 29 31 33 34
25 26 13 5 9 6 7 4 8 1 19 34 22 16 10 4 5 18 39 26 19 20 23 25 26 29 26 23 21 17 17 20 14 11 12 17 20 22 25 29 27 27 26 29 26 28 30 29 31
21 24 11 8 6 5 7 5 9 14 26 2 11 14 6 6 9 40 26 28 21 24 25 28 28 31 29 24 20 18 19 16 12 10 14 15 21 23 24 25 25 25 26 27 24 26 26 28 30
15 8 8 7 3 5 8 12 16 19 10 5 26 15 8 2 36 22 32 26 25 27 28 27 28 32 31 28 23 24 20 16 13 10 10 13 20 22 23 24 24 24 26 25 22 21 22 25 26
12 6 7 4 7 6 3 18 26 10 11 16 11 9 7 29 13 22 28 27 27 29 30 27 28 32 34 33 27 27 22 19 14 10 11 15 18 20 20 21 22 22 23 22 19 16 17 22 23
6 6 7 1 7 11 3 20 12 11 16 20 14 17 15 25 16 29 26 28 27 29 30 29 29 30 33 34 32 30 26 20 13 9 9 14 18 19 17 18 19 20 21 20 18 15 12 16 20
5 6 7 4 6 6 5 18 11 18 17 12 29 9 11 33 26 30 27 28 28 31 31 29 30 29 31 33 33 32 29 21 14 11 8 10 16 17 15 15 15 17 18 18 17 15 10 10 15
6 6 6 8 6 6 4 20 13 24 14 19 24 14 13 44 38 35 31 30 31 32 30 29 28 29 31 32 32 30 25 20 16 13 11 13 14 16 15 13 13 14 15 16 15 14 10 5 8
7 5 4 7 10 6 8 7 8 11 27 24 24 12 9 49 47 45 42 38 38 38 35 32 30 29 30 31 30 28 25 21 18 16 13 11 12 14 15 13 12 12 12 13 13 11 9 5 2
10 5 12 10 5 2 10 8 9 9 22 13 25 24 22 52 57 58 58 53 49 48 43 38 35 32 32 31 31 29 25 22 19 17 16 15 14 14 14 13 12 11 10 10 10 8 7 5 1
15 12 3 8 3 11 11 6 9 8 6 29 48 40 44 58 61 63 62 56 53 50 47 44 40 36 34 33 30 28 25 22 20 18 16 17 16 15 14 14 12 10 9 8 6 5 4 4 2
12 22 13 6 4 11 13 21 12 21 19 26 36 43 53 66 65 67 69 63 58 55 50 48 46 43 39 36 33 29 27 24 21 18 17 16 16 14 15 14 13 11 10 8 7 6 6 5 5
6 14 23 17 7 15 24 35 21 28 33 16 30 47 55 60 63 64 64 63 60 60 55 53 51 48 44 43 38 36 31 28 24 23 21 20 17 15 14 14 13 12 10 9 9 9 9 8 8
7 13 13 14 10 11 8 23 12 24 31 31 31 50 61 63 66 67 69 70 67 62 60 56 55 52 49 47 44 40 36 32 31 28 25 22 20 19 17 16 14 13 12 13 12 12 12 12 11
4 8 11 21 18 7 11 10 12 52 36 31 40 49 62 65 69 70 60 69 69 67 61 62 60 57 55 51 48 45 40 38 37 33 30 27 25 22 21 20 19 17 17 16 15 15 15 14 13
4 2 7 8 26 16 13 19 19 33 41 45 45 56 64 70 73 69 69 69 71 71 70 64 64 63 60 57 53 49 46 44 42 38 36 33 31 28 27 27 24 23 22 20 19 19 18 15 15
3 8 11 15 18 9 18 11 44 59 46 50 48 57 66 72 75 75 77 75 73 74 74 72 70 68 64 61 59 54 51 51 47 44 42 39 37 35 34 31 28 29 28 25 23 21 18 16 19
11 7 8 10 8 15 14 21 23 43 29 66 69 62 63 74 80 77 77 75 77 76 77 77 75 71 69 66 64 61 59 59 56 52 47 44 44 42 39 38 35 35 34 31 27 24 19 18 20
4 9 12 7 14 8 17 21 36 46 43 53 64 56 69 79 80 83 83 80 84 83 84 83 82 79 77 76 78 74 74 67 64 59 54 51 49 47 46 43 41 41 41 35 30 27 26 23 22
9 6 9 11 16 6 15 28 25 34 36 51 64 70 76 71 87 88 88 90 90 88 87 89 86 85 83 80 81 81 77 73 67 63 61 56 55 52 51 49 46 45 44 41 38 34 33 30 26
12 25 18 10 9 4 11 35 24 33 51 62 71 76 77 85 89 84 95 95 97 96 94 94 90 90 87 84 81 84 83 81 79 76 71 66 60 56 55 53 50 48 47 45 40 37 39 39 30
24 12 7 5 3 10 8 27 21 18 38 44 68 77 85 97 104 105 97 96 104 103 96 92 95 92 90 86 90 86 88 90 85 79 72 67 62 58 56 54 52 50 48 47 43 39 39 37 34
12 10 17 16 18 2 13 12 11 30 46 40 50 80 92 116 115 103 103 99 99 104 100 97 95 94 92 92 90 87 88 85 77 77 75 68 62 60 57 54 52 51 49 45 44 43 44 41 41
13 7 8 5 7 13 28 20 44 29 42 18 38 74 85 95 97 105 96 98 98 100 101 99 100 96 93 92 89 89 87 83 82 81 78 73 66 61 62 55 53 47 45 47 48 46 48 48 47
14 11 10 9 12 21 7 24 56 19 18 16 26 59 76 86 87 95 100 101 102 103 102 103 102 97 96 96 92 90 85 80 81 79 78 72 65 62 60 54 53 52 49 52 50 50 50 52 50
31 33 7 12 11 11 3 20 26 20 41 56 62 62 58 66 73 87 92 102 111 101 101 100 104 102 99 97 95 88 84 82 79 79 76 70 63 59 50 49 50 48 42 50 51 51 48 46 56
12 20 35 17 1 2 9 18 23 19 22 27 53 70 83 83 78 74 85 92 107 110 101 98 105 103 102 97 93 89 87 85 83 82 75 67 59 54 50 47 44 47 47 52 54 54 54 55 57
27 2 9 16 23 27 16 15 24 7 13 22 31 57 74 75 75 74 82 83 92 106 106 98 101 104 100 96 95 92 89 85 83 82 74 65 57 51 48 51 54 55 54 53 57 60 61 60 61
12 12 16 5 9 14 18 22 16 29 34 36 21 56 57 50 63 73 74 79 80 89 102 98 100 103 106 99 94 93 90 87 84 80 71 64 55 53 58 57 59 60 60 57 63 64 62 60 61
24 43 23 9 17 9 5 40 13 15 18 22 44 55 67 68 62 54 73 76 80 81 96 99 101 104 101 94 93 90 90 88 83 76 72 65 61 63 64 62 61 61 63 60 60 59 58 58 53
Wind_Direction_850mb
326 335 341 337 49 63 20 224 310 107 98 100 144 156 148 89 155 204 146 144 158 181 176 174 161 160 154 143 136 127 118 115 121 113 114 101 103 97 94 90 91 93 95 96 91 87 82 80 73
324 337 340 43 78 61 275 252 150 167 132 118 96 92 57 112 131 148 151 150 159 178 176 177 173 165 157 148 142 134 125 131 140 125 113 104 102 99 92 90 92 95 98 99 99 94 89 84 81
329 337 332 85 108 157 199 215 164 122 154 137 105 76 89 147 169 156 159 154 166 175 179 174 176 168 164 155 152 139 129 136 156 130 115 109 101 95 93 94 93 95 99 102 103 102 93 83 79
345 359 29 73 167 232 198 185 173 140 124 128 124 73 78 285 148 157 157 161 168 173 174 172 173 170 162 161 156 150 148 150 157 144 118 107 102 100 100 99 96 98 105 111 108 99 91 86 79
346 34 44 22 297 276 235 181 170 141 135 147 141 152 92 152 154 164 164 164 171 170 168 167 167 171 168 167 164 161 163 159 153 137 109 107 105 106 106 102 99 103 108 111 110 102 93 89 82
335 75 47 249 295 309 83 168 167 152 154 150 114 118 149 182 189 168 167 167 173 173 166 163 162 170 173 175 174 172 177 179 167 147 115 99 110 114 114 111 109 110 112 115 118 115 100 86 81
91 81 185 217 278 323 199 191 188 175 161 187 149 109 170 189 190 182 173 175 177 179 174 168 166 169 174 180 182 184 189 194 188 170 143 119 127 126 123 117 112 114 118 122 125 126 122 99 86
126 90 157 204 233 245 278 182 230 179 186 164 170 166 179 187 183 184 181 183 185 186 185 179 176 177 180 182 185 189 195 203 195 182 166 139 142 140 139 129 124 123 126 128 130 134 130 92 70
140 82 224 225 169 238 340 197 211 189 150 167 194 214 224 181 181 185 186 190 192 191 190 186 183 180 179 181 184 185 183 182 183 182 175 166 164 163 154 145 141 139 140 138 135 134 135 135 39
137 148 224 211 194 233 337 202 202 181 169 203 194 195 187 182 186 192 194 195 195 195 191 192 190 188 185 185 185 183 185 185 188 188 183 178 175 170 169 165 163 159 157 156 152 154 149 151 197
164 194 173 244 189 342 332 305 213 210 218 206 201 190 186 187 194 200 203 204 201 198 196 196 195 196 195 193 193 193 191 195 196 194 186 183 182 183 183 183 186 183 181 175 180 177 176 181 205
147 232 232 231 195 313 301 322 308 226 236 238 223 208 192 191 200 205 207 205 204 203 203 201 200 201 201 201 202 202 202 204 204 201 196 198 195 194 195 196 198 203 208 208 213 217 223 231 242
288 195 196 219 277 279 289 277 254 270 262 269 217 200 203 204 208 211 214 212 208 208 207 207 206 205 207 207 207 209 209 211 211 211 208 205 207 206 207 211 210 213 222 229 233 241 248 255 266
309 287 257 226 231 281 270 271 242 269 269 247 221 213 207 210 213 211 214 215 213 214 212 211 212 211 211 213 213 214 215 214 217 218 219 215 212 213 216 221 226 229 230 235 236 241 250 260 269
33 317 294 237 213 229 349 275 223 255 258 239 222 219 212 214 215 219 223 217 217 217 215 216 216 216 216 216 217 217 218 219 223 222 225 227 224 223 226 229 233 236 240 245 247 253 258 264 268
140 244 274 231 182 222 148 253 265 253 241 237 229 221 219 218 222 227 227 226 222 221 220 218 220 220 219 220 219 220 220 222 226 224 228 230 232 230 232 236 238 242 247 250 253 258 263 265 278
213 232 249 308 214 153 174 217 247 250 243 250 236 228 226 227 226 228 229 231 228 226 224 222 222 224 224 224 223 223 224 226 227 226 228 231 236 236 239 244 244 247 251 254 255 258 257 275 293
194 223 212 233 272 226 210 232 247 242 235 243 249 240 233 234 234 234 232 233 233 231 230 228 227 227 229 229 228 227 227 229 229 230 231 233 236 241 243 247 246 248 252 254 255 256 260 267 273
98 211 232 221 239 258 250 247 250 250 252 252 256 250 246 239 249 240 237 235 235 233 231 229 229 230 230 231 228 228 229 228 230 231 235 235 237 242 246 248 249 250 253 258 257 257 252 266 272
252 233 253 305 280 253 275 264 258 257 252 243 251 254 253 254 250 244 240 236 235 236 234 232 230 231 230 234 234 234 235 235 237 239 239 240 241 243 247 251 251 251 253 252 248 247 251 254 259
236 229 231 245 340 272 323 276 249 260 246 251 253 253 251 253 254 254 244 240 237 236 235 234 233 231 230 232 233 235 238 239 239 240 242 241 242 244 249 251 250 251 251 252 250 245 244 245 247
234 192 213 218 125 253 116 281 238 248 249 231 239 242 245 247 252 253 252 247 238 237 236 237 235 234 232 230 232 233 235 236 238 239 242 243 245 245 246 248 248 248 247 249 245 244 245 246 248
242 182 209 219 223 350 228 271 284 211 252 237 227 237 236 246 246 245 248 249 246 238 236 237 237 234 233 231 233 235 236 241 244 242 243 243 244 244 245 244 245 246 243 245 243 243 244 245 254
165 148 47 13 170 230 238 207 265 226 244 239 220 236 238 240 241 243 245 244 246 240 236 235 235 234 232 234 233 236 237 238 239 239 239 241 242 242 244 244 244 243 244 248 250 252 252 250 255
187 166 226 215 224 240 234 203 250 284 274 232 226 239 245 247 244 242 240 241 240 237 234 234 235 236 234 235 236 236 239 239 239 240 240 239 239 241 243 243 243 242 245 251 253 255 255 257 257
212 208 210 234 217 243 137 217 250 237 258 249 247 249 255 253 251 247 244 240 236 235 234 234 234 235 236 236 237 238 239 239 238 239 239 241 242 245 247 247 248 248 250 254 257 256 259 260 264
170 231 238 270 279 223 214 273 289 249 263 256 250 252 254 252 254 251 246 242 237 234 234 235 232 234 237 238 238 237 238 238 237 239 240 242 243 244 246 247 245 252 251 253 256 257 255 257 260
218 62 202 205 247 252 233 250 246 314 259 254 248 249 256 256 258 250 248 243 239 237 236 236 234 235 237 238 237 236 236 237 238 241 242 243 243 243 244 248 247 248 247 250 252 253 255 258 259
183 207 232 242 205 227 253 253 210 238 235 249 255 256 262 269 272 253 252 246 241 237 231 232 233 232 234 237 237 235 236 236 238 241 242 241 242 246 245 244 245 246 246 253 255 255 258 259 261
255 225 215 217 212 238 306 265 194 227 254 249 261 269 273 271 269 271 254 251 240 234 228 228 229 232 234 236 236 235 236 237 239 241 242 241 240 243 245 245 244 246 248 258 254 256 257 259 258